Location: Heidgraben
(53.7081°N, 9.6576°E)
Time: 10:50:58
(UTC+00:00)

Cosmos 1943 Rocket - Pass Details

Date: 05 July 2020
Orbit: 811 x 845 km, 71.0° (Epoch: 05 August)

Event Time Altitude Azimuth Distance (km) Brightness Sun altitude
Rises 21:07:31 0° 325° (NW) 3,416 7.9 -8.0°
Reaches altitude 10° 21:10:26 10° 339° (NNW) 2,479 6.3 -8.2°
Maximum altitude 21:15:04 25° 33° (NNE) 1,658 4.1 -8.5°
Drops below altitude 10° 21:19:41 10° 88° (E) 2,469 4.4 -8.9°
Sets 21:22:35 0° 101° (ESE) 3,398 5.0 -9.1°
